Location: La Brionne
(46.1728°N, 1.7849°E)
Time: 18:01:30
(UTC+00:00)

USA 215 - Pass Details

Date: 30 October 2021
Orbit: 1099 x 1109 km, 123.0° (Epoch: 20 November)

Event Time Altitude Azimuth Distance (km) Brightness Sun altitude
Exits shadow 20:04:11 39° 356° (N) 1,589 4.1 -35.4°
Maximum altitude 20:04:39 40° 346° (NNW) 1,576 4.2 -35.4°
Drops below altitude 10° 20:10:38 10° 279° (W) 2,963 6.3 -36.4°
Sets 20:13:16 0° 273° (W) 3,921 7.0 -36.8°
